Location: La Brionne
(46.1728°N, 1.7849°E)
Time: 08:43:12
(UTC+00:00)

ATLAS 3B R/B - Pass Details

Date: 16 June 2021
Orbit: 1003 x 1191 km, 63.8° (Epoch: 21 July)

Event Time Altitude Azimuth Distance (km) Brightness Sun altitude
Rises 23:05:39 0° 233° (SW) 3,725 5.3 -19.6°
Reaches altitude 10° 23:08:16 10° 238° (WSW) 2,787 4.7 -19.7°
Maximum altitude 23:14:41 55° 316° (NW) 1,224 3.3 -19.9°
Drops below altitude 10° 23:21:21 10° 34° (NNE) 2,895 5.6 -20.1°
Sets 23:24:08 0° 38° (NE) 3,881 6.3 -20.1°
